Time,TemperatureF,DewpointF,PressureIn,WindDirection,WindDirectionDegrees,WindSpeedMPH,WindSpeedGustMPH,Humidity,HourlyPrecipIn,Conditions,Clouds,dailyrainin,SoftwareType,DateUTC
2013-04-04 00:00:00,41.6,33.9,30.31,NW,304,0.0,0.0,74,0.00,,,0.00,Wunderground v.1.15,2013-04-04 04:00:00,
2013-04-04 00:05:00,41.5,33.8,30.31,NW,304,0.0,0.0,74,0.00,,,0.00,Wunderground v.1.15,2013-04-04 04:05:00,
2013-04-04 00:15:00,41.3,34.0,30.31,NW,304,0.0,0.0,75,0.00,,,0.00,Wunderground v.1.15,2013-04-04 04:15:00,
2013-04-04 00:20:00,41.3,34.0,30.31,NW,304,0.0,0.0,75,0.00,,,0.00,Wunderground v.1.15,2013-04-04 04:20:00,
2013-04-04 00:30:00,41.1,34.1,30.30,NW,304,0.0,0.0,76,0.00,,,0.00,Wunderground v.1.15,2013-04-04 04:30:00,
2013-04-04 00:35:00,41.0,34.0,30.30,NW,304,0.0,0.0,76,0.00,,,0.00,Wunderground v.1.15,2013-04-04 04:35:00,
2013-04-04 00:40:00,40.9,33.9,30.30,NW,304,0.0,0.0,76,0.00,,,0.00,Wunderground v.1.15,2013-04-04 04:40:00,
2013-04-04 00:45:00,40.8,34.1,30.30,NW,304,0.0,0.0,77,0.00,,,0.00,Wunderground v.1.15,2013-04-04 04:45:00,
2013-04-04 00:50:00,40.7,33.7,30.31,NW,304,0.0,0.0,76,0.00,,,0.00,Wunderground v.1.15,2013-04-04 04:50:00,
2013-04-04 01:00:00,40.7,33.4,30.31,ESE,105,0.0,2.0,75,0.00,,,0.00,Wunderground v.1.15,2013-04-04 05:00:00,
2013-04-04 01:05:00,41.4,30.1,30.32,NNE,26,1.0,2.0,64,0.00,,,0.00,Wunderground v.1.15,2013-04-04 05:05:00,
2013-04-04 01:15:00,42.5,28.3,30.33,NNW,344,1.0,1.0,57,0.00,,,0.00,Wunderground v.1.15,2013-04-04 05:15:00,
2013-04-04 01:20:00,42.8,27.7,30.33,NW,324,1.0,1.0,55,0.00,,,0.00,Wunderground v.1.15,2013-04-04 05:20:00,
2013-04-04 01:25:00,43.0,27.9,30.33,SE,138,1.0,1.0,55,0.00,,,0.00,Wunderground v.1.15,2013-04-04 05:25:00,
2013-04-04 01:35:00,43.1,27.6,30.32,North,355,0.0,1.0,54,0.00,,,0.00,Wunderground v.1.15,2013-04-04 05:35:00,
2013-04-04 01:40:00,43.0,26.6,30.32,NNW,344,0.0,0.0,52,0.00,,,0.00,Wunderground v.1.15,2013-04-04 05:40:00,
2013-04-04 01:45:00,43.0,26.6,30.32,ENE,62,0.0,0.0,52,0.00,,,0.00,Wunderground v.1.15,2013-04-04 05:45:00,
2013-04-04 01:50:00,43.0,26.1,30.32,ENE,60,0.0,2.0,51,0.00,,,0.00,Wunderground v.1.15,2013-04-04 05:50:00,
2013-04-04 02:00:00,43.0,26.1,30.32,NNW,348,0.0,0.0,51,0.00,,,0.00,Wunderground v.1.15,2013-04-04 06:00:00,
2013-04-04 02:05:00,43.0,26.1,30.32,NNW,337,1.0,1.0,51,0.00,,,0.00,Wunderground v.1.15,2013-04-04 06:05:00,
2013-04-04 02:15:00,42.9,26.0,30.32,NNW,343,0.0,1.0,51,0.00,,,0.00,Wunderground v.1.15,2013-04-04 06:15:00,
2013-04-04 02:20:00,42.8,25.4,30.32,NNE,23,0.0,0.0,50,0.00,,,0.00,Wunderground v.1.15,2013-04-04 06:20:00,
2013-04-04 02:25:00,42.7,25.8,30.32,North,5,0.0,1.0,51,0.00,,,0.00,Wunderground v.1.15,2013-04-04 06:25:00,
2013-04-04 02:30:00,42.7,25.3,30.32,WNW,302,0.0,0.0,50,0.00,,,0.00,Wunderground v.1.15,2013-04-04 06:30:00,
2013-04-04 02:40:00,42.6,26.2,30.32,WNW,290,0.0,2.0,52,0.00,,,0.00,Wunderground v.1.15,2013-04-04 06:40:00,
2013-04-04 02:45:00,42.4,26.0,30.31,NNW,333,0.0,2.0,52,0.00,,,0.00,Wunderground v.1.15,2013-04-04 06:45:00,
2013-04-04 02:50:00,42.3,26.4,30.31,NNW,333,0.0,0.0,53,0.00,,,0.00,Wunderground v.1.15,2013-04-04 06:50:00,
2013-04-04 02:55:00,42.2,26.7,30.31,West,263,0.0,0.0,54,0.00,,,0.00,Wunderground v.1.15,2013-04-04 06:55:00,
2013-04-04 03:05:00,42.0,27.4,30.31,West,279,0.0,0.0,56,0.00,,,0.00,Wunderground v.1.15,2013-04-04 07:05:00,
2013-04-04 03:15:00,41.9,28.6,30.31,NW,325,1.0,1.0,59,0.00,,,0.00,Wunderground v.1.15,2013-04-04 07:15:00,
2013-04-04 03:25:00,41.8,29.7,30.32,ENE,62,0.0,1.0,62,0.00,,,0.00,Wunderground v.1.15,2013-04-04 07:25:00,
2013-04-04 03:30:00,41.7,30.0,30.33,ENE,62,0.0,0.0,63,0.00,,,0.00,Wunderground v.1.15,2013-04-04 07:30:00,
2013-04-04 03:35:00,41.6,30.3,30.33,WSW,246,0.0,0.0,64,0.00,,,0.00,Wunderground v.1.15,2013-04-04 07:35:00,
2013-04-04 03:40:00,41.5,31.0,30.33,NNW,333,0.0,0.0,66,0.00,,,0.00,Wunderground v.1.15,2013-04-04 07:40:00,
2013-04-04 03:50:00,41.4,31.3,30.32,NW,313,0.0,0.0,67,0.00,,,0.00,Wunderground v.1.15,2013-04-04 07:50:00,
2013-04-04 03:55:00,41.4,31.6,30.32,NW,313,0.0,0.0,68,0.00,,,0.00,Wunderground v.1.15,2013-04-04 07:55:00,
2013-04-04 04:00:00,41.3,31.5,30.32,NW,318,0.0,0.0,68,0.00,,,0.00,Wunderground v.1.15,2013-04-04 08:00:00,
2013-04-04 04:05:00,41.3,31.5,30.32,ENE,59,0.0,0.0,68,0.00,,,0.00,Wunderground v.1.15,2013-04-04 08:05:00,
2013-04-04 04:15:00,41.1,31.7,30.32,ENE,59,0.0,0.0,69,0.00,,,0.00,Wunderground v.1.15,2013-04-04 08:15:00,
2013-04-04 04:20:00,41.0,31.6,30.32,ENE,61,0.0,0.0,69,0.00,,,0.00,Wunderground v.1.15,2013-04-04 08:20:00,
2013-04-04 04:30:00,40.8,31.4,30.33,WNW,292,0.0,0.0,69,0.00,,,0.00,Wunderground v.1.15,2013-04-04 08:30:00,
2013-04-04 04:35:00,40.7,31.3,30.33,WNW,292,0.0,0.0,69,0.00,,,0.00,Wunderground v.1.15,2013-04-04 08:35:00,
2013-04-04 04:40:00,40.7,31.3,30.33,WNW,292,0.0,0.0,69,0.00,,,0.00,Wunderground v.1.15,2013-04-04 08:40:00,
2013-04-04 04:45:00,40.6,31.6,30.33,WNW,302,0.0,2.0,70,0.00,,,0.00,Wunderground v.1.15,2013-04-04 08:45:00,
2013-04-04 04:55:00,40.6,31.2,30.33,NNE,19,0.0,0.0,69,0.00,,,0.00,Wunderground v.1.15,2013-04-04 08:55:00,
2013-04-04 05:00:00,40.6,31.2,30.34,NNW,338,0.0,0.0,69,0.00,,,0.00,Wunderground v.1.15,2013-04-04 09:00:00,
2013-04-04 05:05:00,40.5,31.1,30.34,NNW,338,0.0,0.0,69,0.00,,,0.00,Wunderground v.1.15,2013-04-04 09:05:00,
2013-04-04 05:15:00,40.4,30.7,30.34,NNW,338,0.0,0.0,68,0.00,,,0.00,Wunderground v.1.15,2013-04-04 09:15:00,
2013-04-04 05:25:00,40.2,30.5,30.34,ENE,76,0.0,0.0,68,0.00,,,0.00,Wunderground v.1.15,2013-04-04 09:25:00,
2013-04-04 05:30:00,40.0,30.6,30.33,ENE,76,0.0,0.0,69,0.00,,,0.00,Wunderground v.1.15,2013-04-04 09:30:00,
2013-04-04 05:35:00,39.9,30.2,30.34,NNE,15,0.0,0.0,68,0.00,,,0.00,Wunderground v.1.15,2013-04-04 09:35:00,
2013-04-04 05:40:00,39.8,30.1,30.34,NNE,20,0.0,0.0,68,0.00,,,0.00,Wunderground v.1.15,2013-04-04 09:40:00,
2013-04-04 05:50:00,39.6,29.9,30.35,NNE,24,0.0,0.0,68,0.00,,,0.00,Wunderground v.1.15,2013-04-04 09:50:00,
2013-04-04 05:55:00,39.4,29.7,30.35,NNW,328,0.0,0.0,68,0.00,,,0.00,Wunderground v.1.15,2013-04-04 09:55:00,
2013-04-04 06:00:00,39.1,29.8,30.35,NNW,328,0.0,0.0,69,0.00,,,0.00,Wunderground v.1.15,2013-04-04 10:00:00,
2013-04-04 06:05:00,38.9,29.6,30.35,NNW,328,0.0,0.0,69,0.00,,,0.00,Wunderground v.1.15,2013-04-04 10:05:00,
2013-04-04 06:15:00,38.5,29.2,30.35,NNW,328,0.0,0.0,69,0.00,,,0.00,Wunderground v.1.15,2013-04-04 10:15:00,
2013-04-04 06:20:00,38.3,29.0,30.35,NNW,328,0.0,0.0,69,0.00,,,0.00,Wunderground v.1.15,2013-04-04 10:20:00,
2013-04-04 06:30:00,38.0,28.7,30.35,NNW,348,0.0,0.0,69,0.00,,,0.00,Wunderground v.1.15,2013-04-04 10:30:00,
2013-04-04 06:35:00,37.9,28.6,30.35,NNW,348,0.0,0.0,69,0.00,,,0.00,Wunderground v.1.15,2013-04-04 10:35:00,
2013-04-04 06:40:00,38.0,28.7,30.36,NNW,348,0.0,0.0,69,0.00,,,0.00,Wunderground v.1.15,2013-04-04 10:40:00,
2013-04-04 06:50:00,38.0,28.7,30.36,North,360,0.0,0.0,69,0.00,,,0.00,Wunderground v.1.15,2013-04-04 10:50:00,
2013-04-04 06:55:00,38.0,28.7,30.36,WNW,300,0.0,0.0,69,0.00,,,0.00,Wunderground v.1.15,2013-04-04 10:55:00,
2013-04-04 07:00:00,38.0,28.4,30.36,WNW,301,0.0,0.0,68,0.00,,,0.00,Wunderground v.1.15,2013-04-04 11:00:00,
2013-04-04 07:05:00,37.9,28.6,30.36,WNW,301,0.0,0.0,69,0.00,,,0.00,Wunderground v.1.15,2013-04-04 11:05:00,
2013-04-04 07:15:00,37.7,28.1,30.36,WNW,301,0.0,0.0,68,0.00,,,0.00,Wunderground v.1.15,2013-04-04 11:15:00,
2013-04-04 07:20:00,37.6,28.0,30.36,WNW,302,0.0,0.0,68,0.00,,,0.00,Wunderground v.1.15,2013-04-04 11:20:00,
2013-04-04 07:25:00,37.6,28.0,30.36,WNW,302,0.0,0.0,68,0.00,,,0.00,Wunderground v.1.15,2013-04-04 11:25:00,
2013-04-04 07:30:00,37.7,28.1,30.37,WNW,292,0.0,0.0,68,0.00,,,0.00,Wunderground v.1.15,2013-04-04 11:30:00,
2013-04-04 07:35:00,37.8,28.5,30.38,WNW,292,0.0,0.0,69,0.00,,,0.00,Wunderground v.1.15,2013-04-04 11:35:00,
2013-04-04 07:45:00,37.9,28.3,30.38,WNW,294,0.0,0.0,68,0.00,,,0.00,Wunderground v.1.15,2013-04-04 11:45:00,
2013-04-04 07:50:00,38.0,28.0,30.37,WNW,302,0.0,0.0,67,0.00,,,0.00,Wunderground v.1.15,2013-04-04 11:50:00,
2013-04-04 07:55:00,38.1,28.1,30.38,East,89,0.0,0.0,67,0.00,,,0.00,Wunderground v.1.15,2013-04-04 11:55:00,
2013-04-04 08:00:00,38.2,28.2,30.38,East,94,0.0,0.0,67,0.00,,,0.00,Wunderground v.1.15,2013-04-04 12:00:00,
2013-04-04 08:05:00,38.4,28.0,30.38,East,94,0.0,0.0,66,0.00,,,0.00,Wunderground v.1.15,2013-04-04 12:05:00,
2013-04-04 08:15:00,38.9,27.8,30.39,West,263,0.0,0.0,64,0.00,,,0.00,Wunderground v.1.15,2013-04-04 12:15:00,
2013-04-04 08:25:00,39.5,27.9,30.39,NNE,26,0.0,0.0,63,0.00,,,0.00,Wunderground v.1.15,2013-04-04 12:25:00,
2013-04-04 08:30:00,39.7,28.1,30.39,SE,127,0.0,0.0,63,0.00,,,0.00,Wunderground v.1.15,2013-04-04 12:30:00,
2013-04-04 08:35:00,39.9,28.3,30.39,South,189,0.0,0.0,63,0.00,,,0.00,Wunderground v.1.15,2013-04-04 12:35:00,
2013-04-04 08:40:00,40.1,27.7,30.39,NW,316,0.0,2.0,61,0.00,,,0.00,Wunderground v.1.15,2013-04-04 12:40:00,
2013-04-04 08:50:00,40.3,27.9,30.39,NW,309,0.0,0.0,61,0.00,,,0.00,Wunderground v.1.15,2013-04-04 12:50:00,
2013-04-04 08:55:00,40.4,27.6,30.39,North,355,0.0,1.0,60,0.00,,,0.00,Wunderground v.1.15,2013-04-04 12:55:00,
2013-04-04 09:00:00,40.6,27.8,30.38,NW,316,0.0,0.0,60,0.00,,,0.00,Wunderground v.1.15,2013-04-04 13:00:00,
2013-04-04 09:05:00,40.9,27.7,30.38,NW,317,0.0,0.0,59,0.00,,,0.00,Wunderground v.1.15,2013-04-04 13:05:00,
2013-04-04 09:15:00,41.5,27.8,30.38,East,95,1.0,1.0,58,0.00,,,0.00,Wunderground v.1.15,2013-04-04 13:15:00,
2013-04-04 09:20:00,42.0,28.3,30.38,NNW,339,1.0,2.0,58,0.00,,,0.00,Wunderground v.1.15,2013-04-04 13:20:00,
2013-04-04 09:30:00,42.7,28.1,30.37,NNW,340,0.0,0.0,56,0.00,,,0.00,Wunderground v.1.15,2013-04-04 13:30:00,
2013-04-04 09:35:00,43.1,28.0,30.37,NNW,344,0.0,0.0,55,0.00,,,0.00,Wunderground v.1.15,2013-04-04 13:35:00,
2013-04-04 09:40:00,43.3,28.2,30.37,ENE,69,0.0,0.0,55,0.00,,,0.00,Wunderground v.1.15,2013-04-04 13:40:00,
2013-04-04 09:50:00,43.7,28.6,30.37,West,275,0.0,0.0,55,0.00,,,0.00,Wunderground v.1.15,2013-04-04 13:50:00,
2013-04-04 09:55:00,43.8,27.8,30.37,East,97,0.0,0.0,53,0.00,,,0.00,Wunderground v.1.15,2013-04-04 13:55:00,
2013-04-04 10:00:00,43.9,28.3,30.37,NNE,27,1.0,1.0,54,0.00,,,0.00,Wunderground v.1.15,2013-04-04 14:00:00,
2013-04-04 10:05:00,44.2,29.0,30.36,East,83,1.0,1.0,55,0.00,,,0.00,Wunderground v.1.15,2013-04-04 14:05:00,
2013-04-04 10:15:00,44.4,28.3,30.36,SSW,205,1.0,1.0,53,0.00,,,0.00,Wunderground v.1.15,2013-04-04 14:15:00,
2013-04-04 10:20:00,44.3,28.7,30.36,WNW,302,1.0,1.0,54,0.00,,,0.00,Wunderground v.1.15,2013-04-04 14:20:00,
2013-04-04 10:25:00,44.2,29.5,30.36,NW,320,0.0,1.0,56,0.00,,,0.00,Wunderground v.1.15,2013-04-04 14:25:00,
2013-04-04 10:35:00,44.3,29.1,30.35,ENE,78,0.0,0.0,55,0.00,,,0.00,Wunderground v.1.15,2013-04-04 14:35:00,
2013-04-04 10:40:00,44.5,29.8,30.35,ENE,73,0.0,0.0,56,0.00,,,0.00,Wunderground v.1.15,2013-04-04 14:40:00,
2013-04-04 10:45:00,45.0,29.8,30.35,ESE,102,0.0,0.0,55,0.00,,,0.00,Wunderground v.1.15,2013-04-04 14:45:00,
2013-04-04 10:50:00,45.4,30.2,30.35,East,92,1.0,1.0,55,0.00,,,0.00,Wunderground v.1.15,2013-04-04 14:50:00,
2013-04-04 11:00:00,46.2,30.5,30.35,East,91,1.0,1.0,54,0.00,,,0.00,Wunderground v.1.15,2013-04-04 15:00:00,
2013-04-04 11:05:00,46.7,30.9,30.34,West,265,1.0,1.0,54,0.00,,,0.00,Wunderground v.1.15,2013-04-04 15:05:00,
2013-04-04 11:15:00,47.3,31.0,30.33,East,90,0.0,0.0,53,0.00,,,0.00,Wunderground v.1.15,2013-04-04 15:15:00,
2013-04-04 11:20:00,47.5,31.2,30.33,East,86,0.0,2.0,53,0.00,,,0.00,Wunderground v.1.15,2013-04-04 15:20:00,
2013-04-04 11:25:00,47.8,31.0,30.34,NW,309,1.0,2.0,52,0.00,,,0.00,Wunderground v.1.15,2013-04-04 15:25:00,
2013-04-04 11:30:00,47.8,31.5,30.34,NNE,22,0.0,0.0,53,0.00,,,0.00,Wunderground v.1.15,2013-04-04 15:30:00,
2013-04-04 11:40:00,47.6,30.8,30.33,ESE,105,0.0,0.0,52,0.00,,,0.00,Wunderground v.1.15,2013-04-04 15:40:00,
2013-04-04 11:45:00,47.3,31.0,30.33,SSW,193,1.0,1.0,53,0.00,,,0.00,Wunderground v.1.15,2013-04-04 15:45:00,
2013-04-04 11:50:00,47.1,30.4,30.33,NE,44,0.0,0.0,52,0.00,,,0.00,Wunderground v.1.15,2013-04-04 15:50:00,
2013-04-04 11:55:00,47.0,30.7,30.32,NE,52,0.0,0.0,53,0.00,,,0.00,Wunderground v.1.15,2013-04-04 15:55:00,
2013-04-04 12:05:00,46.8,31.0,30.31,SE,141,0.0,0.0,54,0.00,,,0.00,Wunderground v.1.15,2013-04-04 16:05:00,
2013-04-04 12:15:00,47.0,31.2,30.31,WNW,294,0.0,0.0,54,0.00,,,0.00,Wunderground v.1.15,2013-04-04 16:15:00,
2013-04-04 12:20:00,47.3,31.5,30.31,East,80,0.0,0.0,54,0.00,,,0.00,Wunderground v.1.15,2013-04-04 16:20:00,
2013-04-04 12:25:00,47.7,31.4,30.30,NNE,32,1.0,1.0,53,0.00,,,0.00,Wunderground v.1.15,2013-04-04 16:25:00,
2013-04-04 12:30:00,48.1,31.3,30.30,ENE,59,1.0,1.0,52,0.00,,,0.00,Wunderground v.1.15,2013-04-04 16:30:00,
2013-04-04 12:40:00,48.8,31.9,30.29,SE,128,0.0,0.0,52,0.00,,,0.00,Wunderground v.1.15,2013-04-04 16:40:00,
2013-04-04 12:50:00,49.4,32.0,30.28,NNW,327,1.0,1.0,51,0.00,,,0.00,Wunderground v.1.15,2013-04-04 16:50:00,
2013-04-04 12:55:00,49.5,31.6,30.29,ESE,109,1.0,1.0,50,0.00,,,0.00,Wunderground v.1.15,2013-04-04 16:55:00,
2013-04-04 13:00:00,49.4,32.0,30.29,East,101,1.0,1.0,51,0.00,,,0.00,Wunderground v.1.15,2013-04-04 17:00:00,
2013-04-04 13:05:00,49.5,33.1,30.27,NW,306,1.0,1.0,53,0.00,,,0.00,Wunderground v.1.15,2013-04-04 17:05:00,
2013-04-04 13:15:00,49.8,32.4,30.27,ENE,71,1.0,2.0,51,0.00,,,0.00,Wunderground v.1.15,2013-04-04 17:15:00,
2013-04-04 13:20:00,49.9,32.0,30.26,ESE,118,1.0,2.0,50,0.00,,,0.00,Wunderground v.1.15,2013-04-04 17:20:00,
2013-04-04 13:30:00,49.7,32.8,30.25,NW,320,1.0,1.0,52,0.00,,,0.00,Wunderground v.1.15,2013-04-04 17:30:00,
2013-04-04 13:35:00,49.6,32.2,30.25,West,263,1.0,1.0,51,0.00,,,0.00,Wunderground v.1.15,2013-04-04 17:35:00,
2013-04-04 13:40:00,49.3,32.4,30.25,West,263,1.0,3.0,52,0.00,,,0.00,Wunderground v.1.15,2013-04-04 17:40:00,
2013-04-04 13:50:00,49.0,33.1,30.25,West,259,0.0,0.0,54,0.00,,,0.00,Wunderground v.1.15,2013-04-04 17:50:00,
2013-04-04 13:55:00,48.9,35.2,30.24,NW,306,0.0,3.0,59,0.00,,,0.00,Wunderground v.1.15,2013-04-04 17:55:00,
2013-04-04 14:00:00,48.5,34.8,30.24,NW,313,0.0,0.0,59,0.00,,,0.00,Wunderground v.1.15,2013-04-04 18:00:00,
2013-04-04 14:05:00,48.2,36.2,30.24,NW,313,0.0,0.0,63,0.00,,,0.00,Wunderground v.1.15,2013-04-04 18:05:00,
2013-04-04 14:15:00,47.7,36.1,30.25,NNW,330,0.0,0.0,64,0.00,,,0.00,Wunderground v.1.15,2013-04-04 18:15:00,
2013-04-04 14:25:00,47.2,37.5,30.25,NNW,330,0.0,0.0,69,0.00,,,0.01,Wunderground v.1.15,2013-04-04 18:25:00,
2013-04-04 14:30:00,46.9,38.0,30.25,NNW,333,0.0,0.0,71,0.00,,,0.01,Wunderground v.1.15,2013-04-04 18:30:00,
2013-04-04 14:40:00,46.1,38.6,30.25,NNW,333,0.0,0.0,75,0.00,,,0.01,Wunderground v.1.15,2013-04-04 18:40:00,
2013-04-04 14:45:00,45.8,39.0,30.24,NNW,333,0.0,0.0,77,0.04,,,0.02,Wunderground v.1.15,2013-04-04 18:45:00,
2013-04-04 14:50:00,45.4,39.3,30.24,NNW,333,0.0,0.0,79,0.10,,,0.03,Wunderground v.1.15,2013-04-04 18:50:00,
2013-04-04 15:00:00,44.6,39.4,30.23,NNW,333,0.0,0.0,82,0.07,,,0.05,Wunderground v.1.15,2013-04-04 19:00:00,
2013-04-04 15:05:00,44.4,40.2,30.23,NNW,333,0.0,0.0,85,0.07,,,0.05,Wunderground v.1.15,2013-04-04 19:05:00,
2013-04-04 15:15:00,44.1,40.5,30.22,NNW,333,0.0,0.0,87,0.04,,,0.06,Wunderground v.1.15,2013-04-04 19:15:00,
2013-04-04 15:20:00,43.9,40.3,30.22,NNW,333,0.0,0.0,87,0.04,,,0.06,Wunderground v.1.15,2013-04-04 19:20:00,
2013-04-04 15:25:00,43.8,40.5,30.21,NNW,333,0.0,0.0,88,0.04,,,0.06,Wunderground v.1.15,2013-04-04 19:25:00,
2013-04-04 15:30:00,43.6,40.3,30.20,North,5,0.0,0.0,88,0.04,,,0.06,Wunderground v.1.15,2013-04-04 19:30:00,
2013-04-04 15:40:00,43.3,40.3,30.20,North,350,0.0,0.0,89,0.13,,,0.08,Wunderground v.1.15,2013-04-04 19:40:00,
2013-04-04 15:45:00,43.2,40.2,30.20,North,349,0.0,0.0,89,0.13,,,0.09,Wunderground v.1.15,2013-04-04 19:45:00,
2013-04-04 15:50:00,43.0,40.0,30.19,West,266,0.0,0.0,89,0.11,,,0.10,Wunderground v.1.15,2013-04-04 19:50:00,
2013-04-04 15:55:00,42.8,40.1,30.19,NNW,340,0.0,0.0,90,0.16,,,0.12,Wunderground v.1.15,2013-04-04 19:55:00,
2013-04-04 16:05:00,42.3,39.6,30.20,NNW,333,0.0,0.0,90,0.20,,,0.16,Wunderground v.1.15,2013-04-04 20:05:00,
2013-04-04 16:15:00,42.0,39.6,30.20,SSE,158,0.0,0.0,91,0.14,,,0.18,Wunderground v.1.15,2013-04-04 20:15:00,
2013-04-04 16:20:00,41.8,39.4,30.20,West,260,0.0,0.0,91,0.07,,,0.19,Wunderground v.1.15,2013-04-04 20:20:00,
2013-04-04 16:30:00,41.7,39.3,30.19,NNW,336,0.0,0.0,91,0.24,,,0.22,Wunderground v.1.15,2013-04-04 20:30:00,
2013-04-04 16:35:00,41.6,39.2,30.18,NNW,339,0.0,0.0,91,0.10,,,0.22,Wunderground v.1.15,2013-04-04 20:35:00,
2013-04-04 16:40:00,41.6,39.4,30.18,WNW,294,0.0,3.0,92,0.09,,,0.23,Wunderground v.1.15,2013-04-04 20:40:00,
2013-04-04 16:50:00,41.7,39.5,30.19,WNW,301,0.0,0.0,92,0.06,,,0.24,Wunderground v.1.15,2013-04-04 20:50:00,
2013-04-04 16:55:00,41.6,39.4,30.19,West,273,0.0,0.0,92,0.04,,,0.24,Wunderground v.1.15,2013-04-04 20:55:00,
2013-04-04 17:05:00,41.4,39.3,30.18,WNW,283,0.0,0.0,92,0.00,,,0.25,Wunderground v.1.15,2013-04-04 21:05:00,
2013-04-04 17:15:00,41.3,39.2,30.18,WNW,285,0.0,0.0,92,0.06,,,0.26,Wunderground v.1.15,2013-04-04 21:15:00,
2013-04-04 17:20:00,41.1,39.0,30.17,NW,306,0.0,1.0,92,0.06,,,0.26,Wunderground v.1.15,2013-04-04 21:20:00,
2013-04-04 17:25:00,41.1,39.2,30.17,NNW,343,0.0,1.0,93,0.04,,,0.26,Wunderground v.1.15,2013-04-04 21:25:00,
2013-04-04 17:30:00,41.0,38.9,30.17,NW,304,0.0,0.0,92,0.00,,,0.26,Wunderground v.1.15,2013-04-04 21:30:00,
2013-04-04 17:35:00,40.9,38.8,30.17,NW,308,0.0,0.0,92,0.00,,,0.26,Wunderground v.1.15,2013-04-04 21:35:00,
2013-04-04 17:45:00,40.7,38.8,30.15,West,275,0.0,0.0,93,0.00,,,0.27,Wunderground v.1.15,2013-04-04 21:45:00,
2013-04-04 17:50:00,40.7,38.8,30.16,SSE,167,0.0,0.0,93,0.07,,,0.28,Wunderground v.1.15,2013-04-04 21:50:00,
2013-04-04 17:55:00,40.6,38.7,30.16,East,88,1.0,1.0,93,0.07,,,0.28,Wunderground v.1.15,2013-04-04 21:55:00,
2013-04-04 18:00:00,40.6,38.7,30.15,East,84,0.0,0.0,93,0.05,,,0.29,Wunderground v.1.15,2013-04-04 22:00:00,
2013-04-04 18:05:00,40.5,38.6,30.14,ENE,67,0.0,0.0,93,0.05,,,0.29,Wunderground v.1.15,2013-04-04 22:05:00,
2013-04-04 18:15:00,40.3,38.4,30.13,NW,318,1.0,1.0,93,0.11,,,0.31,Wunderground v.1.15,2013-04-04 22:15:00,
2013-04-04 18:25:00,40.2,38.3,30.12,NNW,346,0.0,1.0,93,0.11,,,0.33,Wunderground v.1.15,2013-04-04 22:25:00,
2013-04-04 18:30:00,40.2,38.6,30.13,NW,323,0.0,0.0,94,0.13,,,0.34,Wunderground v.1.15,2013-04-04 22:30:00,
2013-04-04 18:35:00,40.0,38.4,30.14,NW,317,0.0,0.0,94,0.17,,,0.36,Wunderground v.1.15,2013-04-04 22:35:00,
2013-04-04 18:45:00,40.0,38.4,30.12,NW,311,0.0,1.0,94,0.11,,,0.37,Wunderground v.1.15,2013-04-04 22:45:00,
2013-04-04 18:50:00,40.0,38.4,30.12,WNW,282,0.0,0.0,94,0.11,,,0.38,Wunderground v.1.15,2013-04-04 22:50:00,
2013-04-04 18:55:00,39.9,38.3,30.11,NNE,28,0.0,0.0,94,0.06,,,0.38,Wunderground v.1.15,2013-04-04 22:55:00,
2013-04-04 19:00:00,39.9,38.3,30.10,WNW,295,0.0,0.0,94,0.06,,,0.39,Wunderground v.1.15,2013-04-04 23:00:00,
2013-04-04 19:05:00,39.8,38.2,30.10,WNW,303,0.0,0.0,94,0.06,,,0.39,Wunderground v.1.15,2013-04-04 23:05:00,
2013-04-04 19:15:00,39.8,38.2,30.10,ESE,114,0.0,0.0,94,0.00,,,0.39,Wunderground v.1.15,2013-04-04 23:15:00,
2013-04-04 19:25:00,39.8,38.5,30.09,North,355,0.0,0.0,95,0.00,,,0.39,Wunderground v.1.15,2013-04-04 23:25:00,
2013-04-04 19:30:00,39.8,38.5,30.08,ENE,71,0.0,0.0,95,0.00,,,0.39,Wunderground v.1.15,2013-04-04 23:30:00,
2013-04-04 19:35:00,39.8,38.5,30.07,WNW,291,0.0,0.0,95,0.00,,,0.40,Wunderground v.1.15,2013-04-04 23:35:00,
2013-04-04 19:40:00,39.8,38.5,30.06,WNW,300,0.0,2.0,95,0.00,,,0.40,Wunderground v.1.15,2013-04-04 23:40:00,
2013-04-04 19:50:00,39.8,38.5,30.05,SSE,168,0.0,0.0,95,0.00,,,0.40,Wunderground v.1.15,2013-04-04 23:50:00,
2013-04-04 19:55:00,39.7,38.4,30.05,WNW,289,0.0,0.0,95,0.00,,,0.40,Wunderground v.1.15,2013-04-04 23:55:00,
2013-04-04 20:00:00,39.8,38.5,30.06,NNW,343,0.0,1.0,95,0.00,,,0.40,Wunderground v.1.15,2013-04-05 00:00:00,
2013-04-04 20:05:00,39.8,38.5,30.07,WNW,294,0.0,1.0,95,0.00,,,0.40,Wunderground v.1.15,2013-04-05 00:05:00,
2013-04-04 20:15:00,39.8,38.5,30.06,WNW,288,1.0,2.0,95,0.00,,,0.40,Wunderground v.1.15,2013-04-05 00:15:00,
2013-04-04 20:20:00,39.8,38.5,30.07,WNW,288,0.0,0.0,95,0.00,,,0.40,Wunderground v.1.15,2013-04-05 00:20:00,
2013-04-04 20:30:00,39.8,38.5,30.06,West,277,0.0,0.0,95,0.00,,,0.41,Wunderground v.1.15,2013-04-05 00:30:00,
2013-04-04 20:40:00,39.7,38.4,30.04,NW,310,0.0,0.0,95,0.06,,,0.42,Wunderground v.1.15,2013-04-05 00:40:00,
2013-04-04 20:45:00,39.7,38.7,30.05,WNW,298,1.0,1.0,96,0.21,,,0.44,Wunderground v.1.15,2013-04-05 00:45:00,
2013-04-04 20:50:00,39.6,38.6,30.02,East,89,1.0,1.0,96,0.16,,,0.45,Wunderground v.1.15,2013-04-05 00:50:00,
2013-04-04 20:55:00,39.4,38.4,30.02,WNW,302,1.0,1.0,96,0.21,,,0.47,Wunderground v.1.15,2013-04-05 00:55:00,
2013-04-04 21:05:00,39.3,38.0,30.03,North,360,1.0,3.0,95,0.19,,,0.50,Wunderground v.1.15,2013-04-05 01:05:00,
2013-04-04 21:15:00,39.2,38.2,30.03,ESE,119,0.0,1.0,96,0.15,,,0.52,Wunderground v.1.15,2013-04-05 01:15:00,
2013-04-04 21:20:00,39.2,38.2,30.02,NW,305,0.0,0.0,96,0.18,,,0.54,Wunderground v.1.15,2013-04-05 01:20:00,
2013-04-04 21:25:00,39.2,38.2,30.01,NW,315,0.0,3.0,96,0.24,,,0.55,Wunderground v.1.15,2013-04-05 01:25:00,
2013-04-04 21:35:00,39.2,38.2,30.03,NNW,332,1.0,1.0,96,0.17,,,0.58,Wunderground v.1.15,2013-04-05 01:35:00,
2013-04-04 21:40:00,39.2,38.2,30.03,NNW,340,1.0,1.0,96,0.26,,,0.60,Wunderground v.1.15,2013-04-05 01:40:00,
2013-04-04 21:45:00,39.1,38.1,30.03,NNE,29,1.0,1.0,96,0.29,,,0.62,Wunderground v.1.15,2013-04-05 01:45:00,
2013-04-04 21:55:00,39.1,38.1,30.01,NW,309,1.0,2.0,96,0.15,,,0.65,Wunderground v.1.15,2013-04-05 01:55:00,
2013-04-04 22:00:00,39.1,38.1,30.01,NW,315,1.0,1.0,96,0.23,,,0.67,Wunderground v.1.15,2013-04-05 02:00:00,
2013-04-04 22:05:00,39.0,38.0,30.01,ENE,69,1.0,1.0,96,0.16,,,0.68,Wunderground v.1.15,2013-04-05 02:05:00,
2013-04-04 22:15:00,39.1,38.1,30.00,SSE,147,1.0,2.0,96,0.12,,,0.70,Wunderground v.1.15,2013-04-05 02:15:00,
2013-04-04 22:25:00,39.1,38.1,30.00,NW,325,0.0,1.0,96,0.16,,,0.73,Wunderground v.1.15,2013-04-05 02:25:00,
2013-04-04 22:30:00,39.0,38.0,29.99,NNE,12,1.0,1.0,96,0.10,,,0.74,Wunderground v.1.15,2013-04-05 02:30:00,
2013-04-04 22:35:00,39.1,38.1,29.98,WNW,293,1.0,1.0,96,0.14,,,0.75,Wunderground v.1.15,2013-04-05 02:35:00,
2013-04-04 22:40:00,39.1,38.1,29.98,WNW,300,1.0,2.0,96,0.11,,,0.76,Wunderground v.1.15,2013-04-05 02:40:00,
2013-04-04 22:50:00,39.1,38.1,29.97,NW,323,1.0,1.0,96,0.08,,,0.77,Wunderground v.1.15,2013-04-05 02:50:00,
2013-04-04 22:55:00,39.1,38.1,29.97,NNW,337,1.0,3.0,96,0.06,,,0.78,Wunderground v.1.15,2013-04-05 02:55:00,
2013-04-04 23:05:00,39.2,38.2,29.96,West,271,1.0,2.0,96,0.06,,,0.79,Wunderground v.1.15,2013-04-05 03:05:00,
2013-04-04 23:15:00,39.3,38.5,29.96,North,11,1.0,1.0,97,0.10,,,0.81,Wunderground v.1.15,2013-04-05 03:15:00,
2013-04-04 23:20:00,39.3,38.3,29.96,NNW,342,1.0,1.0,96,0.10,,,0.81,Wunderground v.1.15,2013-04-05 03:20:00,
2013-04-04 23:25:00,39.2,38.2,29.96,WNW,298,0.0,1.0,96,0.10,,,0.82,Wunderground v.1.15,2013-04-05 03:25:00,
2013-04-04 23:35:00,39.2,38.2,29.96,East,89,0.0,0.0,96,0.05,,,0.83,Wunderground v.1.15,2013-04-05 03:35:00,
2013-04-04 23:40:00,39.3,38.3,29.96,North,360,0.0,1.0,96,0.05,,,0.83,Wunderground v.1.15,2013-04-05 03:40:00,
2013-04-04 23:50:00,39.2,38.2,29.95,NW,314,1.0,1.0,96,0.00,,,0.83,Wunderground v.1.15,2013-04-05 03:50:00,
2013-04-04 23:55:00,39.2,38.2,29.95,NW,325,1.0,1.0,96,0.00,,,0.84,Wunderground v.1.15,2013-04-05 03:55:00,